SL-16 DEB

基本信息
目录编号:
24301
目录名称:
SL-16 DEB
国际标识:
1996-051E
轨道中心:
EARTH
物体状态:
在轨
发射日期:
1996-09-04 UTC
轨道信息
数据来源: 国际轨道数据
星历时间: 2026-07-14T03:49:14+0800
半长轴: 7368.323km
偏心率: 0.0205481
轨道倾角: 70.993°
近地点辐角: 139.689°
升交点赤经: 98.423°
平近点角: 289.634°
近地点: 838.78km
远地点: 1141.592km
周期: 104.909分钟
每日圈数: 13.726185
详细信息
发射场:
TTMTR
轨道高度:
LEO
数据来源:
AOE Integration Group
参考系:
TEME
时间系统:
UTC
历元类型:
SGP4
2D轨道图
3D轨道图
轨道高度分析图
轨道倾角分析图
轨道综合分析图
查看轨道综合分析图